Weather History for KAXA - December, 2012

Change the Weather History Date:

Tuesday, December 11, 2012

  Actual Average Record
Temperature  
Mean Temperature 25 °F -  
Max Temperature 35 °F 32 °F 51 °F (1998)
Min Temperature 15 °F 18 °F -7 °F (2013)
Degree Days  
Heating Degree Days 40    
Moisture  
Dew Point 20 °F    
Average Humidity 76    
Maximum Humidity 93    
Minimum Humidity 60    
Precipitation  
Precipitation 0.00 in - - ()
Sea Level Pressure  
Sea Level Pressure 29.88 in    
Wind  
Wind Speed 10 mph (SW)    
Max Wind Speed 22 mph    
Max Gust Speed 28 mph    
Visibility 10 miles    
Events      
Averages and records for this station are not official NWS values.
T = Trace of Precipitation, MM = Missing Value Source: NWS Daily Summary

Daily Weather History Graph

Daily Weather History Graph

Search for Another Location

Airport or City:

Trip Planner

Search our weather history database for the weather conditions in past years. The results will help you decide how hot, cold, wet, or windy it might be!

Date:

Astronomy

Dec. 11, 2012 Rise Set
Actual Time 7:39 AM CST 4:42 PM CST
Civil Twilight 7:06 AM CST 5:14 PM CST
Nautical Twilight 6:30 AM CST 5:50 PM CST
Astronomical Twilight 5:56 AM CST 6:24 PM CST
Moon 5:33 AM CST (12/11) 3:23 PM CST (12/11)
Length of Visible Light 10h 07m
Length of Day
9h 03m
Waning Crescent, 4% of the Moon is Illuminated
Dec 11
Waning Crescent
Dec 13
New
Dec 19
First Quarter
Dec 28
Full
Jan 4
Last Quarter

Hourly Weather History & Observations

Time (CST) Temp. Windchill Dew Point Humidity Pressure Visibility Wind Dir Wind Speed Gust Speed Precip Events Conditions
12:15 AM 19.4 °F 6.6 °F 10.4 °F 68% 29.82 in 10.0 mi South 12.7 mph - N/A   Overcast
12:35 AM 19.4 °F 7.9 °F 10.4 °F 68% 29.81 in 10.0 mi SSW 10.4 mph - N/A   Overcast
12:55 AM 19.4 °F 7.9 °F 12.2 °F 74% 29.81 in 10.0 mi SSW 10.4 mph - N/A   Overcast
1:15 AM 19.4 °F 7.2 °F 10.4 °F 68% 29.81 in 10.0 mi SSW 11.5 mph - N/A   Overcast
1:35 AM 19.4 °F 8.6 °F 10.4 °F 68% 29.80 in 10.0 mi SSW 9.2 mph - N/A   Overcast
1:55 AM 21.2 °F 10.9 °F 12.2 °F 68% 29.80 in 10.0 mi SW 9.2 mph - N/A   Overcast
2:15 AM 21.2 °F 8.9 °F 12.2 °F 68% 29.81 in 10.0 mi SW 12.7 mph - N/A   Overcast
2:35 AM 21.2 °F 9.5 °F 12.2 °F 68% 29.81 in 10.0 mi SW 11.5 mph - N/A   Scattered Clouds
2:55 AM 19.4 °F 8.6 °F 12.2 °F 74% 29.82 in 10.0 mi SW 9.2 mph - N/A   Clear
3:15 AM 19.4 °F 9.5 °F 12.2 °F 74% 29.82 in 10.0 mi WSW 8.1 mph - N/A   Clear
3:35 AM 19.4 °F 8.6 °F 12.2 °F 74% 29.82 in 10.0 mi West 9.2 mph - N/A   Clear
3:55 AM 17.6 °F 8.2 °F 12.2 °F 79% 29.82 in 10.0 mi WSW 6.9 mph - N/A   Scattered Clouds
4:15 AM 17.6 °F 8.2 °F 14.0 °F 86% 29.82 in 10.0 mi WSW 6.9 mph - N/A   Overcast
4:35 AM 17.6 °F 8.2 °F 12.2 °F 79% 29.82 in 10.0 mi SW 6.9 mph - N/A   Mostly Cloudy
4:55 AM 17.6 °F 8.2 °F 12.2 °F 79% 29.83 in 10.0 mi WSW 6.9 mph - N/A   Scattered Clouds
5:15 AM 17.6 °F 7.3 °F 14.0 °F 86% 29.83 in 10.0 mi West 8.1 mph - N/A   Scattered Clouds
5:35 AM 17.6 °F 6.4 °F 14.0 °F 86% 29.84 in 10.0 mi West 9.2 mph - N/A   Partly Cloudy
5:55 AM 17.6 °F 6.4 °F 14.0 °F 86% 29.84 in 10.0 mi West 9.2 mph - N/A   Clear
6:15 AM 15.8 °F 5.1 °F 12.2 °F 86% 29.84 in 10.0 mi West 8.1 mph - N/A   Clear
6:35 AM 15.8 °F 4.2 °F 12.2 °F 86% 29.85 in 10.0 mi WSW 9.2 mph - N/A   Clear
6:55 AM 15.8 °F 4.2 °F 12.2 °F 86% 29.85 in 10.0 mi SW 9.2 mph - N/A   Clear
7:15 AM 15.8 °F 5.1 °F 14.0 °F 93% 29.85 in 10.0 mi SW 8.1 mph - N/A   Partly Cloudy
7:35 AM 15.8 °F 4.2 °F 14.0 °F 93% 29.86 in 10.0 mi SW 9.2 mph - N/A   Mostly Cloudy
8:15 AM 17.6 °F 7.3 °F 14.0 °F 86% 29.86 in 10.0 mi SW 8.1 mph - N/A   Overcast
8:35 AM 19.4 °F 8.6 °F 15.8 °F 86% 29.87 in 10.0 mi SW 9.2 mph - N/A   Overcast
8:55 AM 21.2 °F 11.7 °F 15.8 °F 80% 29.87 in 10.0 mi SW 8.1 mph - N/A   Overcast
9:15 AM 21.2 °F 11.7 °F 17.6 °F 86% 29.88 in 10.0 mi SSW 8.1 mph - N/A   Overcast
9:35 AM 23.0 °F 11.7 °F 19.4 °F 86% 29.88 in 10.0 mi SW 11.5 mph - N/A   Overcast
9:55 AM 24.8 °F 14.6 °F 21.2 °F 86% 29.88 in 10.0 mi SW 10.4 mph - N/A   Overcast
10:15 AM 26.6 °F 16.2 °F 21.2 °F 80% 29.88 in 10.0 mi SW 11.5 mph - N/A   Overcast
10:35 AM 28.4 °F 16.6 °F 23.0 °F 80% 29.88 in 10.0 mi SW 16.1 mph - N/A   Overcast
10:55 AM 30.2 °F 17.4 °F 23.0 °F 75% 29.87 in 10.0 mi SW 20.7 mph - N/A   Overcast
11:15 AM 30.2 °F 18.1 °F 24.8 °F 80% 29.88 in 10.0 mi WSW 18.4 mph 26.5 mph N/A   Overcast
11:35 AM 32.0 °F 20.1 °F 24.8 °F 75% 29.88 in - West 19.6 mph - N/A   Overcast
11:55 AM 32.0 °F 21.2 °F 24.8 °F 75% 29.88 in 10.0 mi West 16.1 mph - N/A   Overcast
12:15 PM 32.0 °F 19.8 °F 24.8 °F 75% 29.88 in 10.0 mi West 20.7 mph - N/A   Overcast
12:35 PM 33.8 °F 21.9 °F 24.8 °F 70% 29.88 in 10.0 mi West 21.9 mph - N/A   Scattered Clouds
12:55 PM 35.6 °F 24.8 °F 24.8 °F 65% 29.88 in 10.0 mi West 19.6 mph 27.6 mph N/A   Partly Cloudy
1:15 PM 35.6 °F 25.5 °F 24.8 °F 65% 29.87 in 10.0 mi West 17.3 mph - N/A   Mostly Cloudy
1:35 PM 35.6 °F 25.5 °F 24.8 °F 65% 29.87 in 10.0 mi West 17.3 mph 23.0 mph N/A   Overcast
1:55 PM 35.6 °F 25.2 °F 26.6 °F 70% 29.87 in 10.0 mi West 18.4 mph - N/A   Overcast
2:15 PM 35.6 °F 25.9 °F 24.8 °F 65% 29.87 in 10.0 mi West 16.1 mph 21.9 mph N/A   Mostly Cloudy
2:35 PM 35.6 °F 26.6 °F 24.8 °F 65% 29.88 in 10.0 mi West 13.8 mph 20.7 mph N/A   Mostly Cloudy
2:55 PM 33.8 °F 23.9 °F 23.0 °F 65% 29.88 in 10.0 mi WNW 15.0 mph 23.0 mph N/A   Overcast
3:15 PM 35.6 °F 26.6 °F 23.0 °F 60% 29.89 in 10.0 mi West 13.8 mph - N/A   Scattered Clouds
3:35 PM 35.6 °F 26.2 °F 23.0 °F 60% 29.89 in 10.0 mi West 15.0 mph - N/A   Partly Cloudy
3:55 PM 33.8 °F 25.8 °F 23.0 °F 65% 29.90 in 10.0 mi West 10.4 mph 18.4 mph N/A   Mostly Cloudy
4:15 PM 33.8 °F 26.4 °F 24.8 °F 70% 29.90 in 10.0 mi WNW 9.2 mph - N/A   Overcast
4:35 PM 33.8 °F 28.6 °F 24.8 °F 70% 29.91 in 10.0 mi NW 5.8 mph - N/A   Overcast
4:55 PM 33.8 °F 26.4 °F 24.8 °F 70% 29.92 in 10.0 mi NW 9.2 mph - N/A   Overcast
5:15 PM 32.0 °F 27.5 °F 24.8 °F 75% 29.92 in 10.0 mi NW 4.6 mph - N/A   Overcast
5:35 PM 32.0 °F - 24.8 °F 75% 29.92 in 10.0 mi Calm Calm - N/A   Overcast
5:55 PM 32.0 °F 28.7 °F 24.8 °F 75% 29.93 in 10.0 mi NW 3.5 mph - N/A   Overcast
6:15 PM 32.0 °F - 24.8 °F 75% 29.93 in 10.0 mi Calm Calm - N/A   Overcast
6:35 PM 32.0 °F - 24.8 °F 75% 29.94 in 10.0 mi Calm Calm - N/A   Overcast
6:55 PM 32.0 °F - 24.8 °F 75% 29.94 in 10.0 mi Calm Calm - N/A   Overcast
7:15 PM 32.0 °F - 24.8 °F 75% 29.94 in 10.0 mi Calm Calm - N/A   Overcast
7:35 PM 30.2 °F - 24.8 °F 80% 29.94 in 10.0 mi Calm Calm - N/A   Overcast
7:55 PM 30.2 °F 25.4 °F 24.8 °F 80% 29.94 in 10.0 mi SE 4.6 mph - N/A   Overcast
8:15 PM 30.2 °F 24.3 °F 24.8 °F 80% 29.95 in 10.0 mi SE 5.8 mph - N/A   Overcast
8:35 PM 30.2 °F 25.4 °F 24.8 °F 80% 29.95 in 10.0 mi SE 4.6 mph - N/A   Overcast
8:55 PM 30.2 °F 24.3 °F 24.8 °F 80% 29.95 in 10.0 mi SE 5.8 mph - N/A   Overcast
9:15 PM 30.2 °F 24.3 °F 23.0 °F 75% 29.95 in 10.0 mi SE 5.8 mph - N/A   Overcast
9:35 PM 28.4 °F 21.2 °F 23.0 °F 80% 29.95 in 10.0 mi SE 6.9 mph - N/A   Partly Cloudy
9:55 PM 28.4 °F 21.2 °F 23.0 °F 80% 29.94 in 10.0 mi SE 6.9 mph - N/A   Clear
10:15 PM 28.4 °F 21.2 °F 23.0 °F 80% 29.94 in 10.0 mi SE 6.9 mph - N/A   Clear
10:35 PM 26.6 °F 18.2 °F 21.2 °F 80% 29.94 in 10.0 mi SSE 8.1 mph - N/A   Clear
10:55 PM 28.4 °F 19.7 °F 21.2 °F 74% 29.94 in 10.0 mi SSE 9.2 mph - N/A   Clear
11:15 PM 26.6 °F 17.5 °F 21.2 °F 80% 29.94 in 10.0 mi SSE 9.2 mph - N/A   Clear
11:35 PM 28.4 °F 18.5 °F 21.2 °F 74% 29.94 in 10.0 mi South 11.5 mph - N/A   Clear
11:55 PM 26.6 °F 16.2 °F 19.4 °F 74% 29.94 in 10.0 mi South 11.5 mph - N/A   Clear